Flag for United Kingdom Weather past 2 weeks in Taunton, England, United Kingdom

Now
36 °F

Chilly.


Feels Like: 27 °F
Forecast: 37 / 62 °F
Wind: 14 mph from Northeast

Location: Dunkeswell Aerodrome

Current Time: Apr 19, 2015 at 6:09:58 AM

Latest Report: Apr 19, 2015 at 5:00 AM


Visibility: 8 mi

Pressure: 30.28 "Hg

Humidity: 95%

Dew point: 35 °F

Location of TauntonLocation

Historic Weather in Taunton — Graph

°F

Taunton temperature yesterday

Maximum temperature yesterday: 57 °F (at 4:00 PM)
Minimum temperature yesterday: 37 °F (at 7:00 AM)
Average temperature yesterday: 47 °F

Past Weeks' High & Low Weather Summary

 TemperatureHumidityPressure
High71 °F (Apr 15, 3:00 PM)100% (Apr 6, 5:00 AM)30.66 "Hg (Apr 6, 5:00 AM)
Low35 °F (Apr 6, 6:00 AM)40% (Apr 11, 5:00 PM)29.88 "Hg (Apr 16, 5:00 PM)
Average50 °F76%30.26 "Hg
* Reported Apr 4 5:00 AM — Apr 19 4:00 AM, Taunton, Weather by CustomWeather, © 2015

Note: Actual official high and low records may vary slightly from our data, if they occured in-between our weather recording intervals... More about our weather records

Advertising

Taunton weather history for previous 24 hours

 ConditionsComfort  
Time TempWeatherWind HumidityBarometerVisibility
4:00 AM
Sun, Apr 19
38 °FChilly.13 mph90%30.29 "Hg14 mi
3:00 AM38 °FChilly.15 mph91%30.30 "Hg12 mi
2:00 AM37 °FChilly.7 mph84%30.32 "Hg11 mi
1:00 AM41 °FQuite cool.13 mph65%30.32 "Hg19 mi
12:00 AM43 °FQuite cool.16 mph61%30.31 "Hg25 mi
11:00 PM
Sat, Apr 18
45 °FCool.17 mph56%30.29 "Hg25 mi
10:00 PM47 °FCool.18 mph56%30.28 "Hg19 mi
9:00 PM49 °FCool.17 mph57%30.27 "Hg18 mi
8:00 PM51 °FCool.17 mph55%30.24 "Hg14 mi
7:00 PM54 °FCool.18 mph47%30.24 "Hg13 mi
6:00 PM56 °FRefreshingly cool.20 mph47%30.24 "Hg13 mi
5:00 PM57 °FRefreshingly cool.22 mph49%30.23 "Hg16 mi
4:00 PM57 °FRefreshingly cool.20 mph48%30.24 "Hg19 mi
3:00 PM57 °FRefreshingly cool.18 mph50%30.25 "Hg9 mi
2:00 PM56 °FRefreshingly cool.17 mph49%30.27 "Hg7 mi
1:00 PM53 °FCool.20 mph54%30.28 "Hg10 mi
12:00 PM51 °FCool.20 mph55%30.29 "Hg10 mi
11:00 AM49 °FCool.21 mph61%30.29 "Hg12 mi
10:00 AM45 °FCool.22 mph77%30.30 "Hg9 mi
9:00 AM42 °FQuite cool.22 mph84%30.30 "Hg9 mi
8:00 AM39 °FChilly.21 mph89%30.30 "Hg9 mi
7:00 AM37 °FChilly.18 mph93%30.30 "Hg7 mi
6:00 AM38 °FChilly.20 mph92%30.28 "Hg9 mi
Weather by CustomWeather, © 2015

See weather overviewHow to use our weather pages